KM4BH Weather Reports


time (UTC)temp
C
wind
direction
speed
KPH
gust
KPH
rain 1hr
cm
rain 24hr
cm
rain mn
cm
humidity
%
barometer
mb
20260504192043 25 236 3.2 8.0 0.00 0.00 0.00 33 1016.7
20260504191555 25 275 3.2 8.0 0.00 0.00 0.00 35 1016.9
20260504191111 25 191 1.6 4.8 0.00 0.00 0.00 35 1016.8
20260504190545 25 52 1.6 11.3 0.00 0.00 0.00 34 1016.9
20260504190106 25 197 4.8 11.3 0.00 0.00 0.00 31 1017.1
20260504185544 25 171 4.8 11.3 0.00 0.00 0.00 34 1017.2
20260504185043 24 248 1.6 12.9 0.00 0.00 0.00 38 1017.2
20260504184604 25 240 4.8 12.9 0.00 0.00 0.00 37 1017.2
20260504184045 25 253 3.2 8.0 0.00 0.00 0.00 34 1017.2
20260504183545 24 0 1.6 9.7 0.00 0.00 0.00 36 1017.3
20260504183053 24 229 6.4 9.7 0.00 0.00 0.00 33 1017.3
20260504182544 25 245 1.6 8.0 0.00 0.00 0.00 38 1017.4
20260504182044 25 12 3.2 6.4 0.00 0.00 0.00 35 1017.4
20260504181550 25 262 1.6 6.4 0.00 0.00 0.00 35 1017.4
20260504181044 25 234 1.6 6.4 0.00 0.00 0.00 41 1017.4
20260504180545 25 263 1.6 6.4 0.00 0.00 0.00 41 1017.6
20260504180051 23 150 1.6 6.4 0.00 0.00 0.00 44 1017.7
20260504175544 23 226 1.6 6.4 0.00 0.00 0.00 44 1017.8
20260504175043 23 56 1.6 9.7 0.00 0.00 0.00 39 1017.8
20260504174548 23 250 3.2 9.7 0.00 0.00 0.00 42 1017.9
20260504174043 23 269 4.8 9.7 0.00 0.00 0.00 42 1018.0
20260504173544 24 257 3.2 8.0 0.00 0.00 0.00 41 1018.0
20260504173052 23 154 0.0 9.7 0.00 0.00 0.00 43 1017.9
20260504172543 23 265 1.6 9.7 0.00 0.00 0.00 42 1018.0
20260504172044 23 263 3.2 9.7 0.00 0.00 0.00 43 1018.2
20260504171549 23 221 1.6 9.7 0.00 0.00 0.00 42 1018.2
20260504171044 22 261 4.8 9.7 0.00 0.00 0.00 44 1018.3
20260504170544 22 55 1.6 9.7 0.00 0.00 0.00 45 1018.3
20260504151048 18 229 1.6 11.3 0.00 0.00 0.00 57 1019.5
20260504150544 18 204 4.8 11.3 0.00 0.00 0.00 55 1019.6
20260504141043 16 146 1.6 6.4 0.00 0.00 0.00 63 1019.7
20260504140545 15 186 1.6 6.4 0.00 0.00 0.00 66 1019.7
20260504130544 10 0 0.0 1.6 0.00 0.00 0.00 92 1019.6
20260504110541 5 0 0.0 0.0 0.00 0.00 0.00 94 1018.9
20260504100544 6 0 0.0 0.0 0.00 0.00 0.00 94 1019.0
20260504081553 7 0 0.0 0.0 0.00 0.00 0.00 93 1018.7
20260504081047 6 0 0.0 0.0 0.00 0.00 0.00 92 1018.8
20260504080544 7 0 0.0 0.0 0.00 0.00 0.00 92 1018.8
20260504050541 8 0 0.0 0.0 0.00 0.00 0.00 85 1019.8
20260504050107 8 0 0.0 0.0 0.00 0.00 0.00 86 1019.8
20260504045542 8 0 0.0 0.0 0.00 0.00 0.00 85 1019.9
20260504045040 8 0 0.0 0.0 0.00 0.00 0.00 85 1019.9
20260504044553 8 0 0.0 0.0 0.00 0.00 0.00 85 1019.9
20260504044042 8 0 0.0 0.0 0.00 0.00 0.00 85 1019.9
20260504043542 8 0 0.0 0.0 0.00 0.00 0.00 84 1020.0
20260504043055 8 0 0.0 0.0 0.00 0.00 0.00 84 1020.0
20260504042541 9 0 0.0 0.0 0.00 0.00 0.00 83 1020.1
20260504042040 9 0 0.0 0.0 0.00 0.00 0.00 81 1020.0
20260504041551 9 0 0.0 0.0 0.00 0.00 0.00 80 1020.0
20260504041040 10 0 0.0 0.0 0.00 0.00 0.00 80 1020.0
20260504040540 10 0 0.0 0.0 0.00 0.00 0.00 80 1019.9
20260504040105 10 0 0.0 0.0 0.00 0.00 0.00 79 1020.0
20260504035546 10 0 0.0 0.0 0.00 0.00 0.00 79 1019.9
20260504035044 10 0 0.0 0.0 0.00 0.00 0.00 79 1019.9
20260504034600 10 0 0.0 0.0 0.00 0.00 0.00 77 1020.0
20260504034048 10 0 0.0 0.0 0.00 0.00 0.00 78 1020.0
20260504033545 10 0 0.0 0.0 0.00 0.00 0.00 78 1020.0
20260504033126 10 0 0.0 0.0 0.00 0.00 0.00 78 1020.1
20260504032544 10 0 0.0 0.0 0.00 0.00 0.00 78 1020.1
20260504032043 10 0 0.0 0.0 0.00 0.00 0.00 78 1020.0
20260504031558 10 0 0.0 0.0 0.00 0.00 0.00 78 1019.9
20260504031044 10 0 0.0 0.0 0.00 0.00 0.00 78 1020.0
20260504030544 10 0 0.0 0.0 0.00 0.00 0.00 77 1019.9
20260504030052 10 0 0.0 0.0 0.00 0.00 0.00 77 1019.8
20260504025544 11 0 0.0 0.0 0.00 0.00 0.00 75 1019.8
20260504025045 11 0 0.0 0.0 0.00 0.00 0.00 75 1019.8
20260504024553 11 0 0.0 0.0 0.00 0.00 0.00 75 1019.7
20260504024044 11 0 0.0 0.0 0.00 0.00 0.00 74 1019.7
20260504023544 11 0 0.0 0.0 0.00 0.00 0.00 73 1019.7
20260504023101 11 0 0.0 0.0 0.00 0.00 0.00 72 1019.7
20260504022544 11 0 0.0 0.0 0.00 0.00 0.00 70 1019.6
20260504022043 12 0 0.0 0.0 0.00 0.00 0.00 69 1019.6
20260504021552 12 0 0.0 0.0 0.00 0.00 0.00 69 1019.6
20260504021041 12 0 0.0 0.0 0.00 0.00 0.00 68 1019.5
20260504020545 12 0 0.0 0.0 0.00 0.00 0.00 67 1019.5
20260504020058 12 0 0.0 0.0 0.00 0.00 0.00 67 1019.4
20260504015545 12 0 0.0 0.0 0.00 0.00 0.00 67 1019.4
20260504015045 12 0 0.0 0.0 0.00 0.00 0.00 66 1019.3
20260504014558 12 0 0.0 0.0 0.00 0.00 0.00 64 1019.2
20260504014043 13 0 0.0 0.0 0.00 0.00 0.00 64 1019.1
20260504013544 13 0 0.0 0.0 0.00 0.00 0.00 64 1019.1
20260504013106 13 0 0.0 0.0 0.00 0.00 0.00 65 1019.0
20260504012544 13 0 0.0 0.0 0.00 0.00 0.00 64 1018.9
20260504012042 13 0 0.0 0.0 0.00 0.00 0.00 63 1018.9
20260504011551 13 0 0.0 0.0 0.00 0.00 0.00 63 1018.9
20260504011043 13 0 0.0 0.0 0.00 0.00 0.00 62 1018.8
20260504010545 14 0 0.0 0.0 0.00 0.00 0.00 61 1018.8
20260504010111 14 0 0.0 0.0 0.00 0.00 0.00 60 1018.7
20260504005545 15 0 0.0 0.0 0.00 0.00 0.00 59 1018.7
20260504005045 15 0 0.0 0.0 0.00 0.00 0.00 58 1018.6
20260504004621 15 0 0.0 0.0 0.00 0.00 0.00 58 1018.6
20260504004045 15 0 0.0 0.0 0.00 0.00 0.00 57 1018.5
20260504003544 16 0 0.0 0.0 0.00 0.00 0.00 57 1018.5
20260504003053 16 0 0.0 0.0 0.00 0.00 0.00 57 1018.3
20260504002542 16 0 0.0 0.0 0.00 0.00 0.00 55 1018.4
20260504002042 16 0 0.0 0.0 0.00 0.00 0.00 55 1018.2
20260504001549 17 0 0.0 0.0 0.00 0.00 0.00 53 1018.4
20260504001042 17 0 0.0 0.0 0.00 0.00 0.00 51 1018.2
20260504000542 17 0 0.0 0.0 0.00 0.00 0.00 51 1018.3
20260504000053 18 0 0.0 4.8 0.00 0.00 0.00 49 1018.2
20260503235542 18 0 0.0 4.8 0.00 0.00 0.00 47 1018.2
20260503235042 18 203 0.0 3.2 0.00 0.00 0.00 46 1018.2
20260503234552 18 230 0.0 3.2 0.00 0.00 0.00 47 1018.3
20260503234042 18 179 0.0 6.4 0.00 0.00 0.00 45 1018.2
20260503233543 19 0 0.0 6.4 0.00 0.00 0.00 45 1018.2
20260503233051 19 200 0.0 3.2 0.00 0.00 0.00 46 1018.2
20260503232543 19 0 0.0 3.2 0.00 0.00 0.00 44 1018.2
20260503232042 20 173 1.6 6.4 0.00 0.00 0.00 41 1018.2
20260503231549 20 229 0.0 6.4 0.00 0.00 0.00 41 1018.3
20260503231043 20 247 0.0 4.8 0.00 0.00 0.00 41 1018.3
20260503230542 20 273 1.6 4.8 0.00 0.00 0.00 42 1018.4
20260503230100 20 265 0.0 9.7 0.00 0.00 0.00 40 1018.3
20260503225542 21 180 1.6 9.7 0.00 0.00 0.00 41 1018.2
20260503225042 20 141 3.2 12.9 0.00 0.00 0.00 39 1018.2
20260503224553 20 168 4.8 12.9 0.00 0.00 0.00 40 1018.2
20260503224042 20 191 3.2 9.7 0.00 0.00 0.00 41 1018.2
20260503223539 20 209 3.2 9.7 0.00 0.00 0.00 40 1018.2
20260503223057 20 212 4.8 11.3 0.00 0.00 0.00 40 1018.2
20260503222542 20 184 3.2 11.3 0.00 0.00 0.00 39 1018.3
20260503222043 21 217 1.6 8.0 0.00 0.00 0.00 40 1018.3
20260503221551 21 0 1.6 6.4 0.00 0.00 0.00 41 1018.3
20260503221043 21 237 3.2 6.4 0.00 0.00 0.00 40 1018.4
20260503220542 21 44 1.6 4.8 0.00 0.00 0.00 40 1018.3
20260503220055 21 209 0.0 4.8 0.00 0.00 0.00 40 1018.4
20260503215542 21 221 1.6 11.3 0.00 0.00 0.00 41 1018.4
20260503215042 21 212 4.8 11.3 0.00 0.00 0.00 39 1018.4
20260503214553 21 44 4.8 9.7 0.00 0.00 0.00 39 1018.5
20260503214045 21 229 3.2 9.7 0.00 0.00 0.00 39 1018.5
20260503213542 21 196 1.6 9.7 0.00 0.00 0.00 39 1018.5
20260503213106 21 293 1.6 9.7 0.00 0.00 0.00 38 1018.6
20260503212540 21 161 3.2 9.7 0.00 0.00 0.00 40 1018.6
20260503212043 21 302 1.6 8.0 0.00 0.00 0.00 41 1018.6
20260503211548 21 12 3.2 8.0 0.00 0.00 0.00 39 1018.7
20260503211042 21 274 1.6 12.9 0.00 0.00 0.00 39 1018.6
20260503210543 21 6 1.6 12.9 0.00 0.00 0.00 36 1018.7
20260503210100 22 188 3.2 12.9 0.00 0.00 0.00 37 1018.7
20260503205543 22 0 0.0 8.0 0.00 0.00 0.00 38 1018.6
20260503205042 21 20 1.6 9.7 0.00 0.00 0.00 40 1018.6
20260503204554 21 249 4.8 9.7 0.00 0.00 0.00 40 1018.7
20260503204041 21 319 4.8 9.7 0.00 0.00 0.00 37 1018.8
20260503203543 22 12 3.2 12.9 0.00 0.00 0.00 37 1018.8
20260503203050 21 278 1.6 12.9 0.00 0.00 0.00 39 1018.9
20260503202541 22 11 3.2 12.9 0.00 0.00 0.00 36 1019.1
20260503202041 21 229 3.2 11.3 0.00 0.00 0.00 38 1019.1
20260503201551 22 242 3.2 11.3 0.00 0.00 0.00 35 1019.2
20260503201041 22 200 1.6 9.7 0.00 0.00 0.00 38 1019.2
20260503200542 21 57 3.2 9.7 0.00 0.00 0.00 37 1019.3
20260503200057 21 234 1.6 11.3 0.00 0.00 0.00 37 1019.4
20260503195542 21 180 4.8 11.3 0.00 0.00 0.00 35 1019.6
20260503195041 22 355 1.6 8.0 0.00 0.00 0.00 37 1019.5
20260503194551 21 162 1.6 9.7 0.00 0.00 0.00 37 1019.6
20260503194041 21 159 4.8 11.3 0.00 0.00 0.00 36 1019.7
20260503193542 21 265 4.8 11.3 0.00 0.00 0.00 38 1019.7
20260503193100 21 197 4.8 11.3 0.00 0.00 0.00 37 1019.8
20260503192541 21 250 3.2 11.3 0.00 0.00 0.00 37 1019.8